Weather Roundup
Issued by NWS Corpus Christi, TX

Home | Current Version | Previous Version | Text Only | Print | Product List | Glossary On
Versions: 1 2 3 4 5 6 7 8 9 10 11 12 13 14 15 16 17 18 19 20 21 22 23 24 25 26 27 28 29 30 31 32 33 34 35 36 37 38 39 40 41 42 43 44 45 46 47 48 49 50
000
ASUS44 KCRP 221210
HRRCRP

SOUTH TEXAS REGIONAL WEATHER ROUNDUP
NATIONAL WEATHER SERVICE CORPUS CHRISTI TX
600 AM CST MON DEC 22 2014


TXZ229>244-221300-
...CORPUS CHRISTI AREA OBSERVATIONS...

CITY           SKY/WX    TMP DP  RH WIND       PRES   REMARKS
CORPUS CHRISTI CLOUDY    59  59 100 S6        29.78R FOG
NAS CORPUS CHR MOCLDY    59  59 100 S7        29.78R
ROCKPORT       CLOUDY    60  58  92 SW5       29.77R FOG
KINGSVILLE NAS FOG       58  58 100 S5        29.78S VSB 1/4
ALICE          CLOUDY    62  59  90 S8        29.77S
FALFURRIAS     NOT AVBL
$$

...VICTORIA AREA OBSERVATIONS...

CITY           SKY/WX    TMP DP  RH WIND       PRES   REMARKS
VICTORIA       FOG       61  60  97 SW6       29.78R VSB 1/2
BEEVILLE       CLOUDY    60  60 100 SW7       29.78S FOG
PLEASANTON     CLOUDY    57  56  97 CALM      29.78R FOG
SAN ANTONIO    CLOUDY    57  55  93 SW6       29.76F FOG
$$

...LAREDO AREA OBSERVATIONS...

CITY           SKY/WX    TMP DP  RH WIND       PRES   REMARKS
LAREDO         NOT AVBL
COTULLA        CLOUDY    58  54  86 S3        29.76F
DEL RIO        FOG       53  53 100 SE3       29.76S VSB 3/4
MCALLEN        CLOUDY    61  61 100 S9        29.80R FOG
HEBBRONVILLE   HVY RAIN  57  56  97 S3        29.78R
$$

...OTHER TEXAS OBSERVATIONS...

CITY           SKY/WX    TMP DP  RH WIND       PRES   REMARKS
BROWNSVILLE    CLOUDY    63  62  97 S10       29.79S FOG
HOUSTON        MOCLDY    56  55  97 SE3       29.76S FOG
COL. STATION   CLOUDY    58  57  97 S10       29.72F
AUSTIN         MOCLDY    57  55  93 S14       29.72F
WACO           PTCLDY    55  52  89 S16       29.64F
FORT WORTH     PTCLDY    49  46  90 S12       29.59S
WICHITA FALLS  CLEAR     45  40  82 SW10      29.51R
LUBBOCK        CLEAR     49  31  49 NW16      29.65R
EL PASO        MOCLDY    54  31  41 NW10      29.89F
$$

...MARINE OBSERVATIONS...

STATION/POSITION TIME  SKY/WX   TEMP    WIND        PRES    VSBY  WAVE   SWELL
                                AIR SEA DIR/SP/G                  HT/PER HT/PER
                 (UTC)          (F)     (DEG/KT/KT) (MB)    (MI)  (FT/S) (FT/S)
PORT ARANSAS     1200            61 63  210/  8/  9 1008.5F
BUOY 90 E PORT A 1200            72 72  220/ 14/ 16 1008.9F         3/ 7   2/ 7
BUOY 45 SE BAFFI 1200            69 73  210/ 12/ 16 1008.4S         3/ 7   2/ 7
BUOY 200 E PT IS 1200            74 73  210/ 16/ 19 1009.3R         3/ 5
BUOY 15 E GALVES 1200            64 64  130/  8/  8 1008.0F         2/ 4   2/ 4
$$



USA.gov is the U.S. government's official web portal to all federal, state and local government web resources and services.